x

South Brooks (46132) Wave Buoy

3:00 - Sat 30th May 2015 All times are PDT. -7 hours from GMT.

  • Sig Wave height 5.6ft
  • Peak Period 5s
  • Wind
    27mph, 31mph gusts
  • Sea Temp 50°f
  • Luft Temp 51°f
  • Sea Pressure 1013.8mb
  • South Brooks
  • South Brooks

More Historic Weather Station data

Upgrade to MSW Pro to gain access to the past 30 days of data for over 8000 Wavebouys and Weather Stations around the globe.

Join Pro

Comparision Forecast

View Surf forecast
   
Sa 05/30 3:00 5.5ft 5s 27 31 mph 1013.8mb 50f 51f
2:00 6ft 16s 27 34 mph 1013.8mb 50f 51f
1:00 6ft 14s 27 31 mph 1013.9mb 50f 51f
12:00 6ft 16s 25 31 mph 1013.9mb 50f 51f
Fr 05/29 11:00 5.5ft 5s 25 29 mph 1014.1mb 50f 51f
10:00 5.5ft 14s 25 31 mph 1014.6mb 50f 52f
9:00 6ft 14s 25
mph
1014.7mb 50f 52f
8:00 5.5ft 5s 25 29 mph 1014.7mb 50f 52f
7:00 5ft 17s 25 29 mph 1015mb 50f 52f
6:00 6ft 16s 27 31 mph 1015.1mb 50f 52f
5:00 5.5ft 17s 27 31 mph 1015.5mb 51f 52f
4:00 5.5ft 14s 25 29 mph 1016mb 51f 52f
3:00 6ft 7s 25 29 mph 1016.1mb 51f 52f
2:00 6ft 17s 25 29 mph 1016.2mb 51f 51f
12:00 5.5ft 17s 27 31 mph 1016.3mb 51f 51f
9:00 7ft 17s 25 29 mph 1016.6mb 50f 51f
8:00 7ft 6s 25 29 mph 1016.5mb 51f 51f
7:00  -   -  27
mph
- - -
6:00 7ft 7s 27 34 mph 1016.5mb 51f 51f
5:00 7ft 6s 27 34 mph 1016.6mb 50f 51f
4:00 7ft 7s 27 31 mph 1016.9mb 50f 51f
3:00 7ft 7s 25 29 mph 1017mb 50f 51f
2:00 7ft 14s 27 31 mph 1017mb 50f 51f
1:00  -   -  27
mph
1017.2mb 50f 51f
12:00 7.5ft 6s 27 31 mph 1017.2mb 51f 51f
Do 05/28 11:00 7.5ft 6s 27 34 mph 1017.3mb 51f 51f
10:00 8ft 6s 29 34 mph 1017.5mb 51f 51f
9:00 8.5ft 6s 29 36 mph 1017.5mb 51f 51f
8:00 8ft 6s 29 36 mph 1017.7mb 51f 51f
7:00 8.5ft 7s 29 34 mph 1018.1mb 51f 52f
6:00 8ft 6s 29 38 mph 1018.3mb 51f 52f
5:00 8ft 8s 29 34 mph 1018.8mb 51f 52f
3:00 7.5ft 11s 27 34 mph 1019.3mb 51f 52f
2:00  -   -  25
mph
1019.4mb - 51f
1:00 6ft 18s 25 29 mph 1019.6mb 51f 51f
12:00 6ft 11s 25 29 mph 1019.6mb 51f 51f
11:00 6ft 18s 22 29 mph 1019.4mb 51f 51f
10:00 6ft 18s 22 27 mph 1019.5mb 51f 51f
9:00 7ft 12s 22 27 mph 1019.4mb 51f 51f
8:00 6.5ft 12s 22
mph
1019.2mb 51f 51f
7:00 6.5ft 12s 22 27 mph 1018.8mb 51f 51f
6:00 7ft 14s 22 27 mph 1018.7mb 51f 51f
5:00 7ft 12s 22 27 mph 1018.6mb 51f 51f
4:00 7.5ft 12s 27 34 mph 1018.1mb 51f 52f
3:00 7.5ft 12s 27 34 mph 1018.3mb 51f 52f
2:00 7ft 13s 27 34 mph 1018.4mb 51f 52f
1:00 8ft 12s 29 34 mph 1018.2mb 51f 52f
12:00 7.5ft 14s 27 34 mph 1018.4mb 51f 52f
Mi 05/27 11:00 8ft 12s 27 34 mph 1018.3mb 52f 52f
10:00 8ft 12s 29 34 mph 1017.9mb 52f 52f
9:00 8ft 12s 29 34 mph 1017.4mb 52f 52f
8:00 8ft 14s 27 34 mph 1017.5mb 51f 52f
7:00  -   -  29
mph
- - 52f
6:00 8.5ft 14s 29 36 mph 1017.6mb 51f 52f
5:00 8.5ft 14s 29 36 mph 1018mb 51f 52f
4:00 8ft 13s 29 36 mph 1018.4mb 51f 52f
3:00 7.5ft 13s 29 36 mph 1018.6mb 51f 51f
2:00 7.5ft 14s 29 34 mph 1018.8mb 51f 51f
12:00 7ft 12s 27 31 mph 1018.6mb 52f 51f
11:00 7ft 13s 27 31 mph 1018.3mb 52f 51f
10:00  -   -  27
mph
- - -
9:00 7ft 13s 27 36 mph 1018.3mb 52f 52f
8:00 7ft 13s 27 34 mph 1018.1mb 52f 51f
7:00 7ft 12s 27 31 mph 1018mb 52f 51f
6:00 7ft 12s 27 31 mph 1018mb 51f 49f
4:00 8ft 14s 22 29 mph 1018.4mb 51f 49f
3:00 7.5ft 12s 27 31 mph 1018.2mb 51f 50f
2:00 7.5ft 11s 27 31 mph 1018.2mb 51f 49f
1:00 8ft 11s 27 34 mph 1018mb 51f 49f
Di 05/26 11:00 7ft 13s 27 34 mph 1018mb 51f 50f
10:00 8ft 12s 27 34 mph 1018mb 51f 50f
9:00  -   -  27
mph
- - -
8:00 7.5ft 11s 29 31 mph 1017.7mb 51f 51f
7:00 7.5ft 12s 27 36 mph 1017.8mb 51f 52f
6:00 7ft 12s 27 31 mph 1018.1mb 51f 52f
5:00 7ft 12s 27 34 mph 1018.2mb 51f 51f
3:00 7ft 12s 25 29 mph 1018.8mb 51f 51f
1:00 6ft 14s 27 31 mph 1018.8mb 51f 51f
12:00 6ft 12s 27 31 mph 1019mb 51f 52f